Location: A�t Bou Chrif
(32.7193°N, 5.2385°W)
Time: 03:50:16
(UTC+00:00)

BREEZE-M DEB (TANK) - Pass Details

Date: 08 August 2020
Orbit: 332 x 12043 km, 49.7° (Epoch: 20 September)

Event Time Altitude Azimuth Distance (km) Brightness Sun altitude
Rises 20:26:18 0° 312° (NW) 4,487 8.5 -14.9°
Reaches altitude 10° 20:30:41 10° 321° (NW) 2,456 6.6 -15.7°
Maximum altitude 20:34:53 30° 25° (NNE) 857 3.1 -16.4°
Enters shadow 20:35:50 24° 62° (ENE) 898 2.9 -16.6°
